Location: Peebles
(55.6412°N, 3.1714°W)
Time: 23:24:14
(UTC+00:00)

Meteor 2-19 Rocket - Visible Passes

Search period start: 02 December 2022 00:00
Search period end: 12 December 2022 00:00
Orbit: 935 x 959 km, 82.5° (Epoch: 02 December)

Date Brightness Start Highest point End Pass type
(mag) Time Alt. Az. Time Alt. Az. Time Alt. Az.
03 Dec 6.9 20:11:57 10° N 20:12:03 10° N 20:12:03 10° N visible
04 Dec 6.9 20:28:46 10° N 20:28:56 11° N 20:28:56 11° N visible
05 Dec 7.0 20:45:40 10° N 20:45:49 11° N 20:45:49 11° N visible
06 Dec 6.6 19:18:21 10° N 19:18:39 11° N 19:18:39 11° N visible
06 Dec 7.0 21:02:36 10° N 21:02:43 11° N 21:02:43 11° N visible
07 Dec 6.6 19:35:03 10° N 19:35:33 12° N 19:35:33 12° N visible
07 Dec 7.1 21:19:36 10° NNW 21:19:38 10° NNW 21:19:38 10° NNW visible
08 Dec 6.6 19:51:51 10° N 19:52:29 13° N 19:52:29 13° N visible
09 Dec 6.5 18:25:03 10° NNE 18:25:21 11° NNE 18:25:21 11° NNE visible
09 Dec 6.7 20:08:42 10° N 20:09:25 14° N 20:09:25 14° N visible
10 Dec 6.4 18:41:30 10° N 18:42:18 12° NNE 18:42:18 12° NNE visible
10 Dec 6.7 20:25:38 10° N 20:26:22 14° N 20:26:22 14° N visible
11 Dec 6.4 18:58:09 10° N 18:59:16 14° N 18:59:16 14° N visible
11 Dec 6.8 20:42:36 10° NNW 20:43:20 14° NNW 20:43:20 14° NNW visible
